パンスターズ彗星

C/2021 J2 ( PanSTARRS )

English version
Home page
Updated on September 18, 2021

---------------------------------------------------------------------

・ プロフィール

発見日 2021年5月10日
発見光度 22.0等
発見者 Pan-STARRS 1 telescope (Haleakala)

・ 軌道要素

Epoch 2021 Sept. 23.0 TT = JDT 2459480.5
T 2021 Sept. 22.47880 TT                                Rudenko
q   4.7067140            (2000.0)            P               Q
z  +0.0085533      Peri.  172.06057     -0.85939320     -0.48571519
 +/-0.0000000      Node    23.32907     -0.48849418     +0.87223450
e   0.9597419      Incl.  156.20726     -0.15105219     -0.05733880
From 57 observations 2021 Mar. 20-Aug. 6, mean residual 0".2.

・ 光度変化

        m1 = 11.5 + 5 logΔ + 10.0 log r

---------------------------------------------------------------------

軌道要素はM.P.E.C. 2021-R75に掲載されたものです。
光度グラフはComet for Windowsで作成したものです。

---------------------------------------------------------------------

Copyright(C) Seiichi Yoshida (comet@aerith.net). All rights reserved.